www.pogodaiklimat.ru

Погода и климат >> Архив погоды >> Польша >> Сечень


ПОГОДА в Сечене

  • Прогноз погоды в Сечене
  • Монитор погоды в Сечене

АРХИВ ПОГОДЫ в Сечене

Время (UTC), дата Ветер
(напр.,м/с)
 
Видим.   Явления Облачность Т
(С)
Тd
(С)
f
(%)
Тe
(С)
Тes
(С)
Комфортность P
(гПа)
Po
(гПа)
Тmin
(С)
Tmax
(С)
R
(мм)
R24
(мм)
S
(см)
22 15.09 В 2 н/о н/о +9.0 +8.7 98 +7 +7 1021.9 1003.1
23 15.09 штиль 0 н/о н/о +8.2 +8.1 99 +7 +7 1021.8 1002.9
00 16.09 В 1 н/о н/о +8.0 +7.9 99 +7 +7 1021.5 1002.6
01 16.09 СВ 1 н/о н/о +7.5 +7.5 100 +6 +6 1020.9 1002.0
02 16.09 С 1 н/о н/о +7.5 +7.4 99 +6 +6 1020.7 1001.8
03 16.09 В 1 н/о н/о +6.9 +6.8 99 +6 +6 1020.2 1001.3
04 16.09 СВ 1 н/о н/о +6.6 +6.5 99 +5 +5 1020.1 1001.2
05 16.09 штиль 0 н/о н/о +7.6 +7.5 99 +7 +7 1020.1 1001.2
06 16.09 СВ 1 н/о н/о +10.2 +10.0 99 +10 +10 1019.9 1001.2 +6.2
07 16.09 штиль 0 н/о н/о +14.1 +12.1 88 +14 +14 1019.5 1001.1
08 16.09 ЮЗ 1 н/о н/о +17.6 +13.9 79 +19 +19 1019.0 1000.8
09 16.09 З 2 н/о н/о +20.4 +15.4 73 +24 +24 комфорт 1018.4 1000.4
10 16.09 З 3 н/о н/о +22.9 +16.7 68 +28 +28 душно 1017.8 999.9
11 16.09 ЮЗ 5
{7}
н/о н/о +24.7 +15.9 58 +28 +28 душно 1016.9 999.2
12 16.09 З 5
{8}
н/о н/о +25.7 +14.5 50 +28 +28 жарко 1015.9 998.2
13 16.09 З 5
{10}
н/о н/о +26.0 +13.5 46 +28 +28 жарко 1015.3 997.7
14 16.09 З 5
{10}
н/о н/о +24.4 +13.0 49 +26 +26 жарко 1015.1 997.4
15 16.09 З 4
{7}
н/о н/о +23.5 +13.7 54 +26 +26 жарко 1014.8 997.0
16 16.09 З 3 н/о н/о +22.5 +13.6 57 +26 +26 жарко 1014.8 997.0
17 16.09 З 2 н/о н/о +20.1 +13.3 65 +23 +23 комфорт 1015.0 997.0
18 16.09 ЮЗ 2 н/о н/о +19.1 +13.5 70 +21 +21 комфорт 1015.1 997.1 +26.2
19 16.09 Ю 2 н/о н/о +17.7 +13.2 75 +18 +18 1015.1 997.0
20 16.09 ЮВ 1 н/о н/о +16.4 +13.5 83 +17 +17 1015.2 997.0
21 16.09 Ю 1 н/о н/о +16.1 +13.4 84 +17 +17 1015.5 997.3
22 16.09 Ю 1 н/о н/о +15.9 +13.0 83 +17 +17 1015.2 997.0
23 16.09 штиль 0 н/о н/о +14.5 +13.4 93 +14 +14 1015.1 996.8
00 17.09 штиль 0 н/о н/о +14.6 +13.5 93 +14 +14 1014.3 996.0
01 17.09 Ю 1 н/о н/о +14.3 +13.5 95 +15 +15 1014.2 995.9
02 17.09 штиль 0 н/о н/о +13.9 +13.4 97 +13 +13 1014.2 995.9
03 17.09 штиль 0 н/о н/о +13.4 +13.1 98 +13 +13 1013.7 995.3
04 17.09 штиль 0 н/о н/о +13.7 +13.4 98 +13 +13 1013.7 995.4
05 17.09 Ю 1 н/о н/о +14.4 +13.8 96 +15 +15 1013.8 995.5
06 17.09 ЮЗ 1 н/о н/о +15.4 +13.9 91 +16 +16 1013.9 995.7 +13.4
07 17.09 З 1 н/о н/о +17.9 +14.6 81 +19 +19 1014.0 995.9
08 17.09 З 3 н/о н/о +19.8 +14.6 72 +22 +22 комфорт 1014.0 996.0
09 17.09 СЗ 5
{7}
н/о н/о +21.3 +14.7 66 +24 +24 комфорт 1013.7 995.8
10 17.09 СЗ 4
{9}
н/о н/о +21.4 +14.6 65 +24 +24 комфорт 1013.5 995.6
11 17.09 З 6
{10}
н/о н/о +22.2 +12.7 55 +25 +25 комфорт 1013.3 995.5
12 17.09 З 8
{12}
н/о н/о +22.9 +13.1 54 +26 +26 жарко 1012.9 995.1
13 17.09 З 6
{12}
н/о н/о +22.8 +13.6 56 +26 +26 жарко 1012.5 994.7
14 17.09 З 7
{12}
н/о н/о +21.7 +12.8 57 +24 +24 комфорт 1012.2 994.4
15 17.09 З 6
{11}
н/о н/о +21.1 +11.7 55 +23 +23 комфорт 1012.0 994.1
16 17.09 З 5
{11}
н/о н/о +19.3 +12.3 64 +20 +20 1011.7 993.7
17 17.09 З 4
{8}
н/о н/о +16.9 +11.8 72 +16 +16 1011.9 993.8
18 17.09 З 4 н/о н/о +15.7 +11.3 75 +15 +15 1012.5 994.3 +23.5
19 17.09 З 3 н/о н/о +15.1 +11.5 79 +14 +14 1013.0 994.8
20 17.09 З 4 н/о н/о +14.9 +11.3 79 +14 +14 1013.4 995.1
21 17.09 ЮЗ 4
{7}
н/о н/о +14.2 +11.0 81 +13 +13 1013.4 995.1
22 17.09 ЮЗ 3 н/о н/о +13.2 +10.7 85 +12 +12 1013.4 995.0
23 17.09 З 2 н/о н/о +11.9 +9.5 85 +11 +11 1014.1 995.6
00 18.09 Ю 2 н/о н/о +11.2 +8.4 83 +10 +10 1014.3 995.8
01 18.09 З 4
{8}
н/о н/о +12.0 +5.4 64 +10 +10 1014.9 996.4
02 18.09 СЗ 6
{10}
н/о н/о +12.4 +2.8 52 +10 +10 1015.5 997.0
03 18.09 СЗ 3
{12}
н/о н/о +9.7 +3.7 66 +8 +8 1016.8 998.1
04 18.09 СЗ 6
{11}
н/о н/о +10.7 +1.3 52 +8 +8 1017.8 999.2
05 18.09 СЗ 3
{9}
н/о н/о +9.8 +1.7 57 +8 +8 1018.9 1000.2
06 18.09 З 4 н/о н/о +11.9 +3.2 55 +10 +10 1019.6 1001.0 +8.6
07 18.09 З 6
{11}
н/о н/о +13.2 +3.8 53 +11 +11 1020.1 1001.6
08 18.09 СЗ 8
{11}
н/о н/о +14.3 +4.0 50 +12 +12 1020.9 1002.5
09 18.09 СЗ 7
{12}
н/о н/о +15.2 +3.7 46 +14 +14 1021.0 1002.6
10 18.09 СЗ 6
{12}
н/о н/о +16.4 +2.8 40 +15 +15 1021.1 1002.8
11 18.09 З 6
{11}
н/о н/о +16.7 +5.0 46 +16 +16 1021.3 1003.0
12 18.09 СЗ 6
{9}
н/о н/о +17.5 +3.8 40 +17 +17 1021.1 1002.9
13 18.09 СЗ 5
{9}
н/о н/о +17.0 +4.3 43 +16 +16 1020.9 1002.6
14 18.09 З 5
{8}
н/о н/о +17.1 +3.8 41 +16 +16 1021.0 1002.7
15 18.09 СЗ 5
{8}
н/о н/о +16.0 +4.1 45 +15 +15 1020.8 1002.5
16 18.09 СЗ 3
{7}
н/о н/о +14.1 +4.4 52 +13 +13 1021.1 1002.6
17 18.09 СЗ 2 н/о н/о +10.2 +3.0 61 +9 +9 1021.7 1003.0
18 18.09 ЮВ 2 н/о н/о +8.8 +2.8 66 +7 +7 1022.6 1003.8 +17.8
19 18.09 штиль 0 н/о н/о +5.3 +2.8 84 +4 +4 1023.7 1004.6
20 18.09 З 1 н/о н/о +4.3 +3.3 93 +3 +3 1024.1 1004.9
21 18.09 Ю 1 н/о н/о +3.9 +2.6 91 +2 +2 1024.1 1004.9
22 18.09 штиль 0 н/о н/о +2.3 +1.4 94 +1 +1 1024.1 1004.8
23 18.09 ЮВ 1 н/о н/о +2.5 +1.9 96 +1 +1 1024.2 1004.9
00 19.09 В 2 н/о н/о +2.2 +1.8 97 -1 -1 1024.2 1004.9
01 19.09 В 2 н/о н/о +1.8 +1.4 97 -2 -2 1024.1 1004.8
02 19.09 штиль 0 н/о н/о +0.6 +0.3 98 -1 -1 1024.3 1004.9
03 19.09 В 2 н/о н/о +0.4 +0.3 99 -3 -3 1024.3 1004.9
04 19.09 СВ 1 н/о н/о -0.4 -0.7 98 -3 -3 1024.8 1005.3
05 19.09 штиль 0 н/о н/о +0.5 +0.5 100 -1 -1 1025.1 1005.7
06 19.09 СВ 1 н/о н/о +3.7 +3.4 98 +2 +2 1025.2 1006.0 -0.5
07 19.09 ЮЗ 1 н/о н/о +7.4 +4.0 79 +7 +7 1025.4 1006.4
08 19.09 СВ 1 н/о н/о +11.0 +5.1 67 +11 +11 1025.3 1006.6
09 19.09 З 1 н/о н/о +14.5 +5.8 56 +15 +15 1024.9 1006.4
10 19.09 Ю 1 н/о н/о +15.2 +4.3 48 +16 +16 1024.3 1005.9
11 19.09 З 4
{7}
н/о н/о +15.9 +3.7 44 +15 +15 1024.0 1005.6
12 19.09 СЗ 5
{8}
н/о н/о +17.4 +3.0 38 +17 +17 1023.5 1005.2
13 19.09 С 6
{9}
н/о н/о +17.0 +3.0 39 +16 +16 1023.6 1005.3
14 19.09 СЗ 5
{9}
н/о н/о +16.8 +4.5 44 +16 +16 1023.3 1005.0
15 19.09 СЗ 5
{9}
н/о н/о +15.9 +2.0 39 +15 +15 1023.4 1005.0
16 19.09 СЗ 4
{8}
н/о н/о +13.8 +3.0 48 +13 +13 1023.7 1005.2
17 19.09 СЗ 5
{10}
н/о н/о +11.4 +3.4 58 +9 +9 1024.6 1005.9
18 19.09 СЗ 3
{8}
н/о н/о +9.7 +2.8 62 +8 +8 1025.5 1006.7 +18.2
19 19.09 СЗ 2 н/о н/о +6.9 +2.6 74 +5 +5 1026.3 1007.3
20 19.09 ЮЗ 1 н/о н/о +5.8 +2.8 81 +5 +5 1026.9 1007.8
21 19.09 ЮЗ 1 н/о н/о +5.4 +2.7 83 +4 +4 1027.0 1007.9
22 19.09 Ю 1 н/о н/о +3.6 +2.1 90 +2 +2 1027.4 1008.1
23 19.09 ЮВ 1 н/о н/о +2.6 +1.4 92 +1 +1 1027.6 1008.3
00 20.09 штиль 0 н/о н/о +1.5 +0.9 96 0 0 1027.7 1008.3
01 20.09 В 1 н/о н/о +0.9 +0.5 97 -1 -1 1028.0 1008.5
02 20.09 В 2 н/о н/о +0.9 +0.6 98 -3 -3 1027.9 1008.4
03 20.09 В 2 н/о н/о +0.2 -0.1 98 -4 -4 1028.1 1008.6
04 20.09 СВ 1 н/о н/о -0.1 -0.4 98 -2 -2 1028.3 1008.8
05 20.09 штиль 0 н/о н/о -0.2 -0.3 99 -2 -2 1028.5 1008.9
06 20.09 штиль 0 н/о н/о +1.9 +1.8 99 +1 +1 1028.6 1009.2 -0.7
07 20.09 Ю 1 н/о н/о +6.9 +4.2 83 +6 +6 1028.7 1009.6
08 20.09 З 2 н/о н/о +9.3 +5.5 77 +8 +8 1028.7 1009.8
09 20.09 ЮЗ 2 н/о н/о +13.3 +6.2 62 +13 +13 1028.1 1009.5
10 20.09 ЮЗ 3 н/о н/о +16.0 +3.4 43 +16 +16 1027.3 1008.9
11 20.09 СЗ 4
{8}
н/о н/о +16.6 +3.6 42 +16 +16 1026.7 1008.3
12 20.09 СЗ 2
{7}
н/о н/о +17.1 +2.7 38 +17 +17 1026.3 1007.9
13 20.09 СЗ 3
{8}
н/о н/о +16.7 +3.0 40 +17 +17 1026.0 1007.6
14 20.09 З 4
{7}
н/о н/о +17.4 +3.7 40 +17 +17 1025.5 1007.2
15 20.09 СЗ 3
{7}
н/о н/о +16.3 +3.7 43 +16 +16 1025.7 1007.3
17 20.09 З 1 н/о н/о +10.8 +3.4 60 +11 +11 1026.4 1007.6
18 20.09 В 1 н/о н/о +7.8 +3.8 76 +7 +7 1027.3 1008.3 +18.1
19 20.09 ЮВ 1 н/о н/о +6.4 +3.6 82 +5 +5 1027.9 1008.8
20 20.09 В 1 н/о н/о +5.0 +3.2 88 +4 +4 1028.5 1009.3
21 20.09 В 2 н/о н/о +4.3 +3.1 92 +1 +1 1028.6 1009.4
22 20.09 В 1 н/о н/о +3.5 +2.6 94 +2 +2 1028.6 1009.3
23 20.09 С 1 н/о н/о +2.8 +2.2 96 +1 +1 1028.6 1009.3
00 21.09 В 1 н/о н/о +2.0 +1.3 95 0 0 1028.6 1009.2
01 21.09 штиль 0 н/о н/о +1.2 +0.8 97 -0 -0 1028.7 1009.2
02 21.09 В 2 н/о н/о +1.3 +1.2 99 -2 -2 1028.9 1009.4
03 21.09 В 1 н/о н/о +0.7 +0.4 98 -1 -1 1029.0 1009.5
04 21.09 штиль 0 н/о н/о +0.4 +0.3 99 -1 -1 1028.9 1009.4
05 21.09 В 1 н/о н/о +1.0 +0.9 99 -1 -1 1029.1 1009.6
06 21.09 В 1 н/о н/о +4.4 +2.9 90 +3 +3 1029.1 1009.9 +0.1
07 21.09 С 1 н/о н/о +8.2 +4.8 79 +8 +8 1029.0 1010.0
08 21.09 СЗ 1 н/о н/о +11.4 +6.3 71 +11 +11 1028.7 1009.9
09 21.09 З 1 н/о н/о +14.3 +5.4 55 +15 +15 1028.4 1009.8
10 21.09 СЗ 2 н/о н/о +16.3 +3.4 42 +17 +17 1027.8 1009.4
11 21.09 Ю 2 н/о н/о +17.5 +3.0 38 +18 +18 1027.2 1008.8
12 21.09 З 2 н/о н/о +18.7 +5.9 43 +20 +20 1026.5 1008.2
13 21.09 З 1 н/о н/о +19.4 +4.7 38 +21 +21 комфорт 1025.9 1007.7
14 21.09 СЗ 1 н/о н/о +18.9 +4.3 38 +20 +20 1025.2 1007.0
15 21.09 Ю 1 н/о н/о +18.8 +3.8 37 +20 +20 1024.6 1006.4
16 21.09 штиль 0 н/о н/о +17.8 +3.7 39 +18 +18 1024.6 1006.3
17 21.09 В 2 н/о н/о +12.4 +5.8 64 +12 +12 1025.1 1006.5
18 21.09 В 2 н/о н/о +9.3 +5.5 77 +8 +8 1025.5 1006.7 +19.5
19 21.09 В 2 н/о н/о +8.2 +5.5 83 +6 +6 1025.5 1006.6
20 21.09 СВ 1 н/о н/о +6.5 +5.1 91 +5 +5 1025.4 1006.4
21 21.09 В 1 н/о н/о +5.1 +4.1 93 +4 +4 1025.4 1006.3
22 21.09 СВ 1 н/о н/о +4.4 +3.5 94 +3 +3 1025.3 1006.1
23 21.09 В 1 н/о н/о +3.8 +3.2 96 +2 +2 1025.3 1006.1
00 22.09 СВ 1 н/о н/о +3.4 +2.8 96 +2 +2 1025.1 1005.9
01 22.09 В 2 н/о н/о +2.9 +2.5 97 -0 -0 1024.8 1005.5
02 22.09 В 1 н/о н/о +2.2 +1.9 98 0 0 1024.5 1005.2
03 22.09 В 2 н/о н/о +1.7 +1.4 98 -2 -2 1024.2 1004.9
04 22.09 В 2 н/о н/о +1.3 +1.0 98 -2 -2 1024.3 1004.9
05 22.09 В 1 н/о н/о +1.9 +1.8 99 -0 -0 1024.1 1004.8
06 22.09 С 1 н/о н/о +6.1 +5.2 94 +5 +5 1023.6 1004.6 +1.0
07 22.09 СВ 1 н/о н/о +9.6 +7.2 85 +9 +9 1023.5 1004.7
08 22.09 С 1 н/о н/о +13.2 +7.9 70 +13 +13 1023.2 1004.6
09 22.09 В 1 н/о н/о +16.4 +6.0 50 +17 +17 1022.0 1003.7
10 22.09 СВ 2 н/о н/о +18.0 +5.9 45 +19 +19 1021.0 1002.8
11 22.09 ЮВ 4
{7}
н/о н/о +20.2 +3.4 33 +21 +21 комфорт 1019.9 1001.8
12 22.09 Ю 3 н/о н/о +20.4 +2.7 31 +21 +21 комфорт 1018.9 1000.9
13 22.09 Ю 4
{7}
н/о н/о +21.6 +3.8 31 +22 +22 комфорт 1018.0 1000.1
14 22.09 ЮВ 3
{7}
н/о н/о +21.0 +3.7 32 +22 +22 комфорт 1017.5 999.5
15 22.09 ЮВ 2 н/о н/о +21.0 +3.7 32 +22 +22 комфорт 1017.0 999.0
16 22.09 В 2 н/о н/о +18.6 +4.8 40 +19 +19 1016.8 998.7
17 22.09 В 2 н/о н/о +13.3 +5.7 60 +13 +13 1017.0 998.6
18 22.09 В 1 н/о н/о +11.0 +6.2 72 +11 +11 1017.6 999.0 +21.7
19 22.09 СВ 2 н/о н/о +9.7 +6.2 79 +8 +8 1017.6 998.9
20 22.09 СВ 2 н/о н/о +8.5 +5.6 82 +7 +7 1017.5 998.7
21 22.09 СВ 2 н/о н/о +7.8 +5.6 86 +6 +6 1017.0 998.2
22 22.09 СВ 1 н/о н/о +7.0 +4.7 85 +6 +6 1016.8 998.0

 

Местоположение метеостанции Сечень (Польша): широта 48.12 долгота 19.52 высота над уровнем моря 153 м.

В архиве по умолчанию представлена погода в Сечене за последнюю неделю. Архивные данные за месяц целиком и за предыдущие месяцы, начиная с января 2011 года, Вы можете получить, выбрав интересующий диапазон дат из раскрывающегося списка и нажав кнопку "Ввод!".


*Определитесь, кто Вы:
робот инопланетянин человек

Внимание! Время в таблицах - всемирное. Для получения местного времени необходимо прибавить поправку, которая равна 1 ч.

Смотрите также архив погоды в соседних городах и на ближайших метеорологических станциях:

Погода в Лученце (Словакия) (28 км)
Погода на Кекеше (Венгрия) (46 км)
Погода в Дудинце (Словакия) (49 км)
Погода в Слиаче (Словакия) (65 км)
Погода в Эгере (Венгрия) (69 км)
Погода в Жьяр-над-Гроном (Словакия) (71 км)
Погода в Тате (Венгрия) (80 км)
Погода в Будапеште (Венгрия) (81 км)
Погода в Моховце (Словакия) (81 км)
Погода в Йосвафо (Венгрия) (85 км)

Пояснения к столбцам:

Ветер - указаны скорость ветра в м/с - средняя за 10 мин, порывы в срок и между сроками (в фигурных скобках) и направление, откуда дует ветер: С - северный, СВ - северо-восточный, В - восточный, ЮВ - юго-восточный, Ю - южный, ЮЗ - юго-западный, З - западный, СЗ - северо-западный.
Видимость - горизонтальная дальность видимости в метрах или километрах. При видимости от 1 до 10 км при отсутствии осадков обычно наблюдается дымка, при ухудшении видимости до 1 км и менее - туман. В сухую погоду видимость может ухудшаться дымом, пылью или мглою.
Явления - указаны атмосферные явления, наблюдавшиеся в срок или в последний час перед сроком; фигурными скобками обозначены явления, наблюдавшиеся между сроками (за 1-3 часа до срока); квадратными скобками обозначены град или гололедные отложения с указанием их диаметра в мм.
Облачность - указаны через наклонную черту общая и нижняя облачность в баллах и высота нижней границы облаков в метрах; квадратными скобками обозначены формы облаков: Ci - перистые, Cs - перисто-слоистые, Cc - перисто-кучевые, Ac - высококучевые, As - высокослоистые, Sc - слоисто-кучевые, Ns - слоисто-дождевые, Cu - кучевые, Cb - кучево-дождевые. Подробнее классификацию облаков см. в Атласе облаков (PDF).
T - Температура воздуха - температура, измеренная на высоте 2 м над землей.
Td - Температура точки росы - температура, при понижении до которой содержащийся в воздухе водяной пар достигнет насыщения.
f - Относительная влажность воздуха - влажноcть воздуха, измеренная на высоте 2 м над землей.
Te - Эффективная температура - температура, которую ощущает одетый по сезону человек в тени. Характеристика душности погоды. При расчете учитывается влияние влажности воздуха и скорости ветра на теплоощущения человека.
Tes - Эффективная температура на солнце - температура, которую ощущает человек, с поправкой на солнечный нагрев. Характеристика знойности погоды. Зависит от высоты солнца над горизонтом, облачности и скорости ветра. Ночью, в пасмурную погоду, а также при ветре 12 м/с и более поправка равна нулю.
P - Атмосферное давление - приведенное к уровню моря атмосферное давление.
Po - Атмосферное давление - измеренное на уровне метеостанции атмосферное давление.
Tmin - Минимальная температура - минимум температуры воздуха на высоте 2 м над землей.
Tmax - Максимальная температура - максимум температуры воздуха на высоте 2 м над землей.
R - Количество осадков - Количество выпавших осадков за период времени, мм. При наведении курсора мыши на число - период времени, за который выпало указанное количество осадков.
R24 - Количество осадков - Количество выпавших осадков за 24 часа, мм.
S - Снежный покров - Высота снежного покрова, см. При наведении курсора мыши на число - состояние снежного покрова и степень покрытия местности в баллах.